Satellite: FALCON
Catalog number: 30776
Epoch time:      09168.96229017
Element set:    0594
Inclination:      035.4327 deg
RA of node:       094.7053 deg
Eccentricity:    0.0001722
Arg of perigee:   304.0219 deg
Mean anomaly:     056.0343 deg
Mean motion:   15.03256682 rev/day
Decay rate:       2.34e-06 rev/day^2
Epoch rev:           12521
Checksum:              272

Satellite: MAST
Catalog number: 31126
Epoch time:      09168.86049026
Element set:    0620
Inclination:      097.9894 deg
RA of node:       223.6357 deg
Eccentricity:    0.0093445
Arg of perigee:   278.1579 deg
Mean anomaly:     080.9008 deg
Mean motion:   14.53500617 rev/day
Decay rate:       -1.9e-07 rev/day^2
Epoch rev:           11513
Checksum:              307

Satellite: CAPE1
Catalog number: 31130
Epoch time:      09168.83107688
Element set:    0630
Inclination:      097.9919 deg
RA of node:       221.7898 deg
Eccentricity:    0.0101104
Arg of perigee:   283.5752 deg
Mean anomaly:     075.4172 deg
Mean motion:   14.52063717 rev/day
Decay rate:       -8.5e-07 rev/day^2
Epoch rev:           11478
Checksum:              310

Satellite: COMPASS
Catalog number: 32787
Epoch time:      09168.16942204
Element set:    0393
Inclination:      097.9423 deg
RA of node:       231.9942 deg
Eccentricity:    0.0016753
Arg of perigee:   035.6014 deg
Mean anomaly:     324.6312 deg
Mean motion:   14.81614453 rev/day
Decay rate:       2.26e-06 rev/day^2
Epoch rev:           06144
Checksum:              291

Satellite: AAUSAT2
Catalog number: 32788
Epoch time:      09168.74506721
Element set:     385
Inclination:      097.9406 deg
RA of node:       232.6225 deg
Eccentricity:    0.0016361
Arg of perigee:   035.3304 deg
Mean anomaly:     324.8975 deg
Mean motion:   14.81736294 rev/day
Decay rate:        9.0e-08 rev/day^2
Epoch rev:            6153
Checksum:              312

Satellite: DO-64
Catalog number: 32789
Epoch time:      09168.76673300
Element set:     396
Inclination:      097.9473 deg
RA of node:       232.8070 deg
Eccentricity:    0.0016543
Arg of perigee:   033.4827 deg
Mean anomaly:     326.7427 deg
Mean motion:   14.81724287 rev/day
Decay rate:       4.40e-06 rev/day^2
Epoch rev:            6153
Checksum:              328

Satellite: CO-66
Catalog number: 32791
Epoch time:      09168.14470888
Element set:    0383
Inclination:      097.9453 deg
RA of node:       232.0034 deg
Eccentricity:    0.0017207
Arg of perigee:   034.0045 deg
Mean anomaly:     326.2267 deg
Mean motion:   14.81444061 rev/day
Decay rate:       3.88e-06 rev/day^2
Epoch rev:           06140
Checksum:              297

Satellite: RS-30
Catalog number: 32953
Epoch time:      09168.75321021
Element set:    0333
Inclination:      082.5018 deg
RA of node:       256.2592 deg
Eccentricity:    0.0019385
Arg of perigee:   173.5586 deg
Mean anomaly:     186.5751 deg
Mean motion:   12.43001722 rev/day
Decay rate:        1.0e-07 rev/day^2
Epoch rev:           04846
Checksum:              284

Satellite: TACSAT-3
Catalog number: 35001
Epoch time:      09168.60052525
Element set:    0035
Inclination:      040.4564 deg
RA of node:       238.1823 deg
Eccentricity:    0.0023800
Arg of perigee:   167.4218 deg
Mean anomaly:     192.7192 deg
Mean motion:   15.38837285 rev/day
Decay rate:      1.224e-05 rev/day^2
Epoch rev:           00441
Checksum:              269

Satellite: PHARMSAT
Catalog number: 35002
Epoch time:      09168.58610600
Element set:    0032
Inclination:      040.4687 deg
RA of node:       238.0932 deg
Eccentricity:    0.0026618
Arg of perigee:   171.1736 deg
Mean anomaly:     188.9550 deg
Mean motion:   15.39608994 rev/day
Decay rate:      1.319e-05 rev/day^2
Epoch rev:           00440
Checksum:              290

Satellite: HAWKSAT1
Catalog number: 35003
Epoch time:      09168.58115307
Element set:    0038
Inclination:      040.4708 deg
RA of node:       238.0590 deg
Eccentricity:    0.0027383
Arg of perigee:   172.9269 deg
Mean anomaly:     187.1936 deg
Mean motion:   15.39866827 rev/day
Decay rate:       9.26e-06 rev/day^2
Epoch rev:           00441
Checksum:              311

Satellite: CP6
Catalog number: 35004
Epoch time:      09168.57868319
Element set:      23
Inclination:      040.4623 deg
RA of node:       238.0156 deg
Eccentricity:    0.0027466
Arg of perigee:   174.4077 deg
Mean anomaly:     185.7048 deg
Mean motion:   15.40055166 rev/day
Decay rate:      2.804e-05 rev/day^2
Epoch rev:             440
Checksum:              289

Satellite: AEROCUB3
Catalog number: 35005
Epoch time:      09168.58222696
Element set:    0032
Inclination:      040.4775 deg
RA of node:       238.0801 deg
Eccentricity:    0.0026609
Arg of perigee:   171.7315 deg
Mean anomaly:     188.3941 deg
Mean motion:   15.39872243 rev/day
Decay rate:      2.867e-05 rev/day^2
Epoch rev:           00440
Checksum:              299

/EX



_______________________________________________
Via the Keps mailing list courtesy of AMSAT-NA
http://amsat.org/mailman/listinfo/keps

--- ViaMAIL!/WC v1.60d
 * Origin: Chowdanet (401-724-4410) telnet://chowdanet.com  (1:323/120)